Weather History for Savannah Hunter, GA

Change the Weather History Date:

Monday, September 10, 2012

  Actual Average Record
Temperature  
Mean Temperature 74 °F -  
Max Temperature 83 °F 83 °F 93 °F (2002)
Min Temperature 65 °F 67 °F 57 °F (1998)
Cooling Degree Days 8    
Growing Degree Days 24 (Base 50)    
Moisture  
Dew Point 61 °F    
Average Humidity 67    
Maximum Humidity 92    
Minimum Humidity 39    
Precipitation  
Precipitation 0.00 in - - ()
Sea Level Pressure  
Sea Level Pressure 30.04 in    
Wind  
Wind Speed 4 mph (NE)    
Max Wind Speed 10 mph    
Max Gust Speed 20 mph    
Visibility 10 miles    
Events      
Averages and records for this station are not official NWS values.
T = Trace of Precipitation, MM = Missing Value Source: NWS Daily Summary

Daily Weather History Graph

Daily Weather History Graph

Search for Another Location

Airport:

Trip Planner

Search our weather history database for the weather conditions in past years. The results will help you decide how hot, cold, wet, or windy it might be!

Date:

Astronomy

Sep. 10, 2012 Rise Set
Actual Time 7:05 AM EDT 7:36 PM EDT
Civil Twilight 6:41 AM EDT 8:01 PM EDT
Nautical Twilight 6:12 AM EDT 8:29 PM EDT
Astronomical Twilight 5:42 AM EDT 8:59 PM EDT
Moon 1:40 AM EDT (9/10) 3:51 PM EDT (9/10)
Length of Visible Light 13h 19m
Length of Day
12h 30m
Waning Crescent, 30% of the Moon is Illuminated
Sep 10
Waning Crescent
Sep 15
New
Sep 22
First Quarter
Sep 29
Full
Oct 8
Last Quarter

Hourly Weather History & Observations

Time (EDT) Temp. Heat Index Dew Point Humidity Pressure Visibility Wind Dir Wind Speed Gust Speed Precip Events Conditions
12:55 AM 71.2 °F - 67.5 °F 88% 29.97 in 10.0 mi Calm Calm - N/A   Clear
1:55 AM 70.0 °F - 66.4 °F 88% 29.97 in 10.0 mi Calm Calm - N/A   Clear
2:55 AM 69.8 °F - 64.8 °F 84% 29.97 in 10.0 mi NNE 4.6 mph - N/A   Clear
3:55 AM 69.3 °F - 64.0 °F 83% 29.96 in 10.0 mi NNE 3.5 mph - N/A   Clear
4:55 AM 66.9 °F - 64.0 °F 90% 29.97 in 10.0 mi North 4.6 mph - N/A   Clear
5:55 AM 66.6 °F - 63.7 °F 90% 29.99 in 10.0 mi North 4.6 mph - N/A   Clear
6:55 AM 65.7 °F - 63.3 °F 92% 30.01 in 10.0 mi North 4.6 mph - N/A   Clear
7:55 AM 67.3 °F - 63.7 °F 88% 30.04 in 10.0 mi North 4.6 mph - N/A   Clear
8:55 AM 72.0 °F - 63.5 °F 75% 30.04 in 10.0 mi North 5.8 mph - N/A   Clear
9:55 AM 76.1 °F - 62.6 °F 63% 30.06 in 10.0 mi NNE 9.2 mph - N/A   Clear
10:55 AM 79.2 °F - 59.7 °F 51% 30.07 in 10.0 mi NNE 10.4 mph - N/A   Clear
11:55 AM 80.6 °F 80.8 °F 57.2 °F 45% 30.07 in 10.0 mi NNE 9.2 mph 19.6 mph N/A   Clear
12:55 PM 81.9 °F 81.2 °F 54.3 °F 39% 30.07 in 10.0 mi North 9.2 mph - N/A   Clear
1:55 PM 82.4 °F 81.9 °F 56.5 °F 41% 30.06 in 10.0 mi NE 6.9 mph - N/A   Clear
2:55 PM 82.8 °F 82.2 °F 57.0 °F 41% 30.05 in 10.0 mi ENE 9.2 mph - N/A   Scattered Clouds
3:55 PM 82.6 °F 82.0 °F 56.3 °F 40% 30.04 in 10.0 mi East 9.2 mph - N/A   Mostly Cloudy
4:55 PM 82.2 °F 81.9 °F 57.0 °F 42% 30.04 in 10.0 mi East 6.9 mph - N/A   Partly Cloudy
5:55 PM 81.0 °F 81.0 °F 56.8 °F 44% 30.05 in 10.0 mi ESE 4.6 mph - N/A   Partly Cloudy
6:55 PM 78.6 °F - 58.1 °F 49% 30.06 in 10.0 mi SE 5.8 mph - N/A   Clear
7:55 PM 73.8 °F - 59.2 °F 60% 30.08 in 10.0 mi Calm Calm - N/A   Clear
8:55 PM 72.5 °F - 59.2 °F 63% 30.09 in 10.0 mi Calm Calm - N/A   Clear
9:55 PM 68.9 °F - 61.0 °F 76% 30.10 in 10.0 mi Calm Calm - N/A   Clear
10:55 PM 68.4 °F - 62.4 °F 81% 30.11 in 10.0 mi Calm Calm - N/A   Mostly Cloudy
11:55 PM 66.7 °F - 61.9 °F 84% 30.11 in 10.0 mi Calm Calm - N/A   Partly Cloudy